Regional Weather Roundup
Issued by NWS

Home | Current Version | Previous Version | Graphics & Text | Print | Product List | Glossary On
Versions: 1 2 3 4 5 6 7 8 9 10 11 12 13 14 15 16 17 18 19 20 21 22 23 24 25 26 27 28 29 30 31 32 33 34 35 36 37 38 39 40 41 42 43 44 45 46 47 48 49 50
000
ASUS43 KLMK 280702
RWRKY
KENTUCKY REGIONAL WEATHER ROUNDUP
NATIONAL WEATHER SERVICE LOUISVILLE KY
200 AM EST FRI NOV 28 2014

NOTE "FAIR" INDICATES FEW OR NO CLOUDS BELOW 12,000 FEET
WITH NO SIGNIFICANT WEATHER AND/OR OBSTRUCTIONS TO VISIBILITY.

KYZ001>023-026-027-061>063-070>075-280800-
WESTERN AND SOUTH CENTRAL KENTUCKY

CITY           SKY/WX    TMP DP  RH WIND       PRES   REMARKS
PADUCAH        CLOUDY    27  24  89 CALM      30.42F
HENDERSON      CLEAR     21  18  86 CALM      30.44F
OWENSBORO      CLEAR     21  19  92 MISG      30.45F
HOPKINSVILLE   PTCLDY    26  25  95 CALM      30.44F
BOWLING GREEN  CLEAR     25  17  72 CALM      30.45F
GLASGOW        NOT AVBL
$$

KYZ024-025-028>034-038-045-046-053-280800-
NORTH CENTRAL KENTUCKY

CITY           SKY/WX    TMP DP  RH WIND       PRES   REMARKS
LOUISVILLE/SDF PTCLDY    26  19  74 W6        30.42F WCI  19
LOUISVILLE/LOU PTCLDY    26  19  74 W3        30.42S
FORT KNOX      CLEAR     22  18  85 CALM      30.40S
$$

KYZ035>037-039>044-047>052-055>060-089>105-280800-
NORTHEAST KENTUCKY

CITY           SKY/WX    TMP DP  RH WIND       PRES   REMARKS
LEXINGTON      CLOUDY    27  17  66 W6        30.39F WCI  20
COVINGTON      MOCLDY    25  15  66 NW5       30.37F WCI  19
FRANKFORT      CLOUDY    28  19  69 CALM      30.39F
$$

KYZ054-064>069-076>088-106>120-280800-
SOUTHEAST KENTUCKY

CITY           SKY/WX    TMP DP  RH WIND       PRES   REMARKS
JACKSON        CLOUDY    28  20  71 W8        30.36R WCI  20
LONDON         CLOUDY    27  16  63 W8        30.39S WCI  19
SOMERSET       NOT AVBL
MIDDLESBORO    NOT AVBL
MONTICELLO     CLOUDY    29  21  71 CALM      30.44S
$$



USA.gov is the U.S. government's official web portal to all federal, state and local government web resources and services.